{"data":{"norad_id":43618,"epoch":"2026-05-25T05:10:50.705760Z","epoch_age_seconds":49720,"freshness":"FRESH","line1":"1 43618U 18071A   26145.21586465  .00000504  00000+0  49562-4 0  9992","line2":"2 43618  97.5067  17.7826 0001296  73.1211 287.0153 14.96190249419502","mean_motion":14.96190249,"eccentricity":0.0001296,"inclination_deg":97.5067,"raan_deg":17.7826,"arg_perigee_deg":73.1211,"mean_anomaly_deg":287.0153,"bstar":4.9562e-5,"rev_number":41950,"period_min":96.244444913502,"perigee_km":577.77917556216,"apogee_km":579.58238273051,"semimajor_km":6956.8177791463,"source":"CELESTRAK","updated_at":"2026-05-25T13:37:55.860658Z"}}